OpenBCM V1.13 (Linux)

Packet Radio Mailbox

DB0FHN

[JN59NK Nuernberg]

 Login: GUEST





  
LU9DCE > KEP      08.01.20 19:00l 245 Lines 12122 Bytes #999 (0) @ WW
BID : 6853_LU9DCE
Read: DJ6UX GUEST
Subj: TLE 08 01
Path: DB0FHN<OE2XZR<OE1XAB<HG8LXL<XE1FH<N3HYM<LU4ECL<LU9DCE
Sent: 200108/1601Z 6853@LU9DCE.TOR.BA.ARG.SOAM LinBPQ6.0.19

            __    _  _  ___  ____   ___  ____    ____  ____  ____
           (  )  / )( \/ _ \(    \ / __)(  __)  (  _ \(  _ \/ ___)
           / (_/\) \/ (\__  )) D (( (__  ) _)    ) _ ( ) _ (\___ \
           \____/\____/(___/(____/ \___)(____)  (____/(____/(____/
               ESTACION DE PACKET RADIO - BUENOS AIRES (GF05OM)
                   BOLETINES INFORMATIVOS PROGRAMADOS (BIP)
                           LINUX - LU9DCE@GMX.COM
+----------------------------------------------------------------------------+
OSCAR 7
1  7530U 74089B   20008.53204028 -.00000049  00000-0 -21293-4 0  9993
2  7530 101.7767 339.3274 0012103 315.3247 163.4296 12.53641526 66063
OSCAR 11 (UoSAT 2)
1 14781U 84021B   20008.11436458  .00000082  00000-0  16198-4 0  9997
2 14781  97.5978  28.0496 0008903  21.2600 338.8983 14.83133358928918
OSCAR 19 (LUSAT)
1 20442U 90005G   20008.07446779 -.00000011  00000-0  12540-4 0  9999
2 20442  98.6734 314.9536 0010647 270.7040  89.2924 14.32942267565505
EYESAT A
1 22825U 93061C   20007.82208446  .00000002  00000-0  18727-4 0  9992
2 22825  98.9178   6.2489 0009264 123.7023 236.5043 14.30075145370981
ITAMSAT
1 22826U 93061D   20007.91627336  .00000009  00000-0  21397-4 0  9990
2 22826  98.9118   6.3115 0009885 113.1934 247.0290 14.30409841371207
RADIO ROSTO
1 23439U 94085A   20008.50398522 -.00000060  00000-0 -49425-3 0  9996
2 23439  64.8150 146.5315 0146058  73.2914 288.3983 11.27569391 31034
JAS 2
1 24278U 96046B   20008.34082689 -.00000041  00000-0 -84138-5 0  9994
2 24278  98.5649 139.4324 0351300  72.2214 291.6930 13.53095180155345
TECHSAT 1B
1 25397U 98043D   20008.43345897 -.00000030  00000-0  61839-5 0  9999
2 25397  98.7120 311.3068 0001833 130.5978 229.5360 14.23677276116869
ISS (ZARYA)
1 25544U 98067A   20008.55440994  .00001143  00000-0  28440-4 0  9991
2 25544  51.6454  63.2941 0005128 111.4886  33.0063 15.49549283207113
PCSAT
1 26931U 01043C   20008.15968801 -.00000016  00000-0  25689-4 0  9999
2 26931  67.0494 198.6273 0006771 263.2883  96.7448 14.30563890954074
SAUDISAT 1C
1 27607U 02058C   20007.66464324 -.00000018  00000-0  18307-4 0  9994
2 27607  64.5545 149.0250 0067330 216.1770 143.4770 14.75600419916983
CUTE-1
1 27844U 03031E   20007.83386502  .00000043  00000-0  38809-4 0  9995
2 27844  98.6833  17.9993 0010234 157.9386 202.2234 14.22214659857169
CUBESAT XI 4
1 27848U 03031J   20007.88411596  .00000032  00000-0  34440-4 0  9991
2 27848  98.6906  18.5869 0009904 169.2753 190.8637 14.21804802857016
MOZHAYETS 4
1 27939U 03042A   20008.53704134  .00000069  00000-0  21007-4 0  9995
2 27939  98.0656 145.7422 0013931 138.9287 221.2964 14.66829335870420
CUBESAT XI 5
1 28895U 05043F   20007.81447473  .00000089  00000-0  25953-4 0  9996
2 28895  97.9850 148.9476 0017984  72.5491 287.7676 14.63727330757196
CUTE-1.7+APD II
1 32785U 08021C   20007.92187847 +.00000202 +00000-0 +27413-4 0  9996
2 32785 097.5606 003.1730 0011957 313.9143 046.1087 14.88400235633846
DELFI C3
1 32789U 08021G   20008.11078184  .00000683  00000-0  49115-4 0  9991
2 32789  97.4405  56.3937 0013145 143.8465 216.3655 15.07372756637601
SEEDS
1 32791U 08021J   20008.06598567  .00000341  00000-0  39855-4 0  9991
2 32791  97.5332   9.4325 0011827 282.0439  77.9454 14.90947698634414
YUBELEINY
1 32953U 08025A   20008.51015921  .00000037  00000-0  19437-3 0  9998
2 32953  82.5037  18.0047 0020147  47.3636 312.9138 12.43093505527634
PRISM (HITOMI)
1 33493U 09002B   20008.36192957  .00001057  00000-0  97634-4 0  9991
2 33493  98.1327 302.1268 0013817 224.7807 135.2299 14.96867315595613
KKS-1 (KISEKI)
1 33499U 09002H   20008.52909242  .00000078  00000-0  19506-4 0  9992
2 33499  98.3320 218.5774 0007922 279.3592  80.6720 14.75494214589282
SWISSCUBE
1 35932U 09051B   20008.03735973  .00000095  00000-0  32461-4 0  9998
2 35932  98.6002 185.1936 0006573 260.4983  99.5471 14.56346540546373
BEESAT
1 35933U 09051C   20007.75360168  .00000100  00000-0  33468-4 0  9992
2 35933  98.6012 186.7344 0004732 277.2214  82.8445 14.56428109546449
ITUPSAT 1
1 35935U 09051E   20007.72265423  .00000079  00000-0  29272-4 0  9992
2 35935  98.6122 186.9226 0007037 274.8891  85.1502 14.55580070546174
XIWANG-1 (HOPE-1)
1 36122U 09072B   20008.20002011 -.00000039  00000-0  84524-5 0  9999
2 36122 100.0818   6.0747 0006981 233.0921 126.9560 13.16352623483659
TISAT 1
1 36799U 10035E   20008.00299316  .00000458  00000-0  52174-4 0  9993
2 36799  98.1761 172.2395 0013176 135.6969 224.5305 14.91242850515068
JUGNU
1 37839U 11058B   20008.51283012  .00000301  00000-0  18893-4 0  9994
2 37839  19.9593 178.7652 0018972  54.0018 340.6912 14.12668454426119
SRMSAT
1 37841U 11058D   20007.95134198 +.00000306 +00000-0 +23007-4 0  9992
2 37841 019.9706 243.1583 0011800 269.3122 207.6517 14.10647382425339
M-CUBED/EXP-1 PRIME
1 37855U 11061F   20007.81312153 +.00000954 +00000-0 +55182-4 0  9993
2 37855 101.7267 012.8587 0172125 194.5092 165.1144 15.05922965446878
HORYU 2
1 38340U 12025D   20008.11890431  .00000131  00000-0  27149-4 0  9997
2 38340  98.3048  57.5403 0011359 189.7395 170.3595 14.75795874411167
STRAND 1
1 39090U 13009E   20008.09466881  .00000041  00000-0  29549-4 0  9994
2 39090  98.4676 215.4452 0010014  49.0374 311.1676 14.35113114359566
SOMP
1 39134U 13015E   20007.81167553  .00001310  00000-0  67803-4 0  9998
2 39134  64.8633  82.1462 0037982 270.6632  89.0143 15.20636036371479
BEESAT 3
1 39135U 13015F   20008.49518087  .00001005  00000-0  58258-4 0  9991
2 39135  64.8666 101.1274 0044639 271.9134  87.6880 15.17840095371174
BEESAT 2
1 39136U 13015G   20008.47823111  .00000858  00000-0  52484-4 0  9997
2 39136  64.8717 105.6245 0031026 280.0075  79.7550 15.17262898371085
CUBEBUG 1
1 39153U 13018D   20008.52025435  .00000167  00000-0  28629-4 0  9995
2 39153  97.9813 110.5551 0015645 256.6118 103.3350 14.80649363361973
ZACUBE
1 39417U 13066B   20007.77966276 +.00000212 +00000-0 +32710-4 0  9991
2 39417 097.5610 014.8477 0060402 088.1689 272.6441 14.81203091331100
TRITON 1
1 39427U 13066M   20008.47780259  .00000113  00000-0  26311-4 0  9995
2 39427  97.7035 338.5690 0112501 232.7351 126.3554 14.67927550328235
GOMX 1
1 39430U 13066Q   20008.47413942  .00000191  00000-0  43800-4 0  9999
2 39430  97.7724 316.8897 0150726 332.3243  26.9984 14.59335922326327
HUMSAT D
1 39433U 13066T   20008.05574413  .00000516  00000-0  55439-4 0  9999
2 39433  97.5290  51.9686 0030141 344.6717  15.3586 14.92344910333400
CUBEBUG 2
1 39440U 13066AA  20008.48117846  .00000156  00000-0  28492-4 0  9996
2 39440  97.6158   0.0339 0081027 142.1611 218.5333 14.75940156330033
FUNCUBE 1
1 39444U 13066AE  20007.73451154  .00000262  00000-0  38314-4 0  9992
2 39444  97.5572  16.9302 0059487  81.4506 279.3443 14.82040143330004
UWE-3
1 39446U 13066AG  20007.79794738  .00000195  00000-0  32322-4 0  9996
2 39446  97.5880   6.5698 0071293 116.7419 244.1112 14.78474672329278
SPROUT
1 39770U 14029E   20008.52909030  .00000501  00000-0  61213-4 0  9993
2 39770  97.8899 115.6214 0009608 131.5440 228.6610 14.87566322305130
UNISAT 6
1 40012U 14033C   20008.39350442  .00000148  00000-0  29218-4 0  9997
2 40012  97.7293 230.9110 0058716 159.1846 201.1773 14.74053276298697
DUCHIFAT 1
1 40021U 14033M   20008.33251687  .00000354  00000-0  41803-4 0  9995
2 40021  97.9345 298.6842 0014290  97.4143 262.8699 14.90780856301889
QB50P1
1 40025U 14033R   20007.91546107  .00000209  00000-0  28109-4 0  9999
2 40025  97.9116 292.2949 0013745 108.4864 251.7848 14.89049732301561
CHUBUSAT 1
1 40300U 14070C   20008.24137804  .00000629  00000-0  30129-4 0  9994
2 40300  97.3086  82.0713 0021304  61.6259 352.1950 15.22315360286988
NUDT-PHONESAT
1 40900U 15049B   20008.51438162  .00001962  00000-0  85113-4 0  9992
2 40900  97.4347  20.9034 0012482 182.1596 329.0857 15.23480386238687
ZDPS 2A
1 40901U 15049C   20008.52718954  .00000721  00000-0  38709-4 0  9995
2 40901  97.4615  16.4510 0012413 208.4408 308.5768 15.18014356238152
ZDPS 2B
1 40902U 15049D   20008.49838758  .00000950  00000-0  50093-4 0  9991
2 40902  97.4581  13.7650 0012580 205.2575 274.3116 15.17932963238121
XW-2A
1 40903U 15049E   20008.46214076  .00001883  00000-0  45302-4 0  9993
2 40903  97.3126  57.1358 0014768 123.4369 344.8201 15.42499779241656
KAITUO 1A
1 40904U 15049F   20008.50332524  .00000284  00000-0  18447-4 0  9992
2 40904  97.4726  12.1044 0013445 217.4007 260.1809 15.15559512237865
OBJECT G
1 40905U 15049G   20008.47303887  .00000629  00000-0  37717-4 0  9993
2 40905  97.4786   9.4221 0014550 213.2585 299.4375 15.14434857237711
XW-2C
1 40906U 15049H   20008.46814851  .00000755  00000-0  42866-4 0  9992
2 40906  97.4730  12.2538 0013788 207.3494 306.6228 15.15888138237869
XW-2D
1 40907U 15049J   20008.48492867  .00000768  00000-0  43278-4 0  9996
2 40907  97.4717  11.9577 0013205 204.1773 307.2569 15.16096634237883
LILACSAT 2
1 40908U 15049K   20008.45293142  .00000188  00000-0  13966-4 0  9996
2 40908  97.4853  10.5013 0014802 213.8880 302.4917 15.13929001237632
XW-2F
1 40910U 15049M   20008.44878970  .00000793  00000-0  42682-4 0  9995
2 40910  97.4656  14.2436 0014144 195.2304 331.1891 15.17635814237910
XW-2B
1 40911U 15049N   20008.38676385  .00000720  00000-0  40887-4 0  9990
2 40911  97.4729  12.5428 0013164 205.7340 260.2075 15.16024844237765
KAITUO 1B
1 40912U 15049P   20008.49548678  .00001117  00000-0  54973-4 0  9998
2 40912  97.4502  18.2464 0014840 174.8538 344.1151 15.19991504238267
TIANWANG 1C (TW-1C)
1 40926U 15051B   20008.40011059  .00016636  00000-0  20474-3 0  9995
2 40926  97.1096  59.5697 0006449 347.9683  22.8693 15.60285361241878
